Weather History for KGMU - October, 2013

Change the Weather History Date:

Monday, October 7, 2013

  Actual Average Record
Temperature  
Mean Temperature 68 °F -  
Max Temperature 78 °F 71 °F 86 °F (1997)
Min Temperature 60 °F 53 °F 43 °F (2001)
Cooling Degree Days 2    
Growing Degree Days 18 (Base 50)    
Moisture  
Dew Point 63 °F    
Average Humidity 82    
Maximum Humidity 94    
Minimum Humidity 55    
Precipitation  
Precipitation 0.83 in - - ()
Sea Level Pressure  
Sea Level Pressure 29.88 in    
Wind  
Wind Speed 6 mph (WSW)    
Max Wind Speed 12 mph    
Max Gust Speed 21 mph    
Visibility 9 miles    
Events Rain , Thunderstorm    
Averages and records for this station are not official NWS values.
T = Trace of Precipitation, MM = Missing Value Source: NWS Daily Summary

Daily Weather History Graph

Daily Weather History Graph

Search for Another Location

Airport or City:

Trip Planner

Search our weather history database for the weather conditions in past years. The results will help you decide how hot, cold, wet, or windy it might be!

Date:

Astronomy

Oct. 07, 2013 Rise Set
Actual Time 7:28 AM EDT 7:04 PM EDT
Civil Twilight 7:03 AM EDT 7:30 PM EDT
Nautical Twilight 6:34 AM EDT 7:59 PM EDT
Astronomical Twilight 6:05 AM EDT 8:28 PM EDT
Moon 10:10 AM EDT (10/7) 8:56 PM EDT (10/7)
Length of Visible Light 12h 26m
Length of Day
11h 35m
Waxing Crescent, 8% of the Moon is Illuminated
Oct 7
Waxing Crescent
Oct 11
First Quarter
Oct 18
Full
Oct 26
Last Quarter
Nov 3
New

Hourly Weather History & Observations

Time (EDT) Temp. Dew Point Humidity Pressure Visibility Wind Dir Wind Speed Gust Speed Precip Events Conditions
12:46 AM 71.6 °F 64.4 °F 78% 29.88 in 10.0 mi SSE 6.9 mph - 0.01 in   Overcast
12:53 AM 71.1 °F 64.9 °F 81% 29.85 in 6.0 mi SSE 5.8 mph - 0.02 in Rain Rain
1:12 AM 71.6 °F 64.4 °F 78% 29.88 in 10.0 mi SSE 9.2 mph - 0.00 in Rain , Thunderstorm Light Rain
1:34 AM 69.8 °F 66.2 °F 88% 29.91 in 2.5 mi SW 11.5 mph 20.7 mph 0.07 in Rain , Thunderstorm Heavy Thunderstorms and Rain
1:40 AM 69.8 °F 66.2 °F 88% 29.90 in 0.8 mi Variable 3.5 mph 20.7 mph 0.24 in Rain , Thunderstorm Heavy Thunderstorms and Rain
1:46 AM 68.0 °F 66.2 °F 94% 29.90 in 1.0 mi Variable 3.5 mph - 0.40 in Rain , Thunderstorm Heavy Thunderstorms and Rain
1:53 AM 68.0 °F 66.0 °F 93% 29.86 in 2.0 mi Calm Calm - 0.50 in Rain , Thunderstorm Heavy Thunderstorms and Rain
2:00 AM 68.0 °F 66.2 °F 94% 29.89 in 4.0 mi Calm Calm - 0.03 in Rain , Thunderstorm Heavy Thunderstorms and Rain
2:22 AM 68.0 °F 66.2 °F 94% 29.88 in 10.0 mi Calm Calm - 0.07 in Rain , Thunderstorm Light Rain
2:39 AM 68.0 °F 66.2 °F 94% 29.87 in 10.0 mi SE 3.5 mph - 0.07 in Rain Light Rain
2:48 AM 68.0 °F 66.2 °F 94% 29.87 in 10.0 mi ESE 6.9 mph - 0.07 in Rain , Thunderstorm Light Thunderstorms and Rain
2:53 AM 68.0 °F 66.0 °F 93% 29.83 in 10.0 mi ESE 4.6 mph - 0.07 in Rain , Thunderstorm Light Thunderstorms and Rain
3:53 AM 68.0 °F 66.0 °F 93% 29.82 in 10.0 mi SSE 4.6 mph - 0.08 in   Overcast
4:53 AM 68.0 °F 66.0 °F 93% 29.82 in 10.0 mi Calm Calm - 0.00 in Thunderstorm Overcast
5:05 AM 68.0 °F 66.2 °F 94% 29.86 in 10.0 mi West 9.2 mph - 0.00 in Rain Light Rain
5:39 AM 68.0 °F 66.2 °F 94% 29.86 in 10.0 mi SW 3.5 mph - 0.02 in Rain Light Rain
5:53 AM 68.0 °F 66.0 °F 93% 29.83 in 10.0 mi WSW 3.5 mph - 0.02 in   Overcast
6:09 AM 68.0 °F 66.2 °F 94% 29.87 in 10.0 mi SW 4.6 mph - N/A   Overcast
6:43 AM 68.0 °F 66.2 °F 94% 29.88 in 10.0 mi West 4.6 mph - 0.00 in Rain Light Rain
6:53 AM 68.0 °F 66.0 °F 93% 29.85 in 10.0 mi West 5.8 mph - 0.01 in Rain Light Rain
7:39 AM 68.0 °F 66.2 °F 94% 29.87 in 2.0 mi SW 3.5 mph - 0.10 in Rain Light Rain
7:48 AM 68.0 °F 66.2 °F 94% 29.88 in 10.0 mi West 3.5 mph - 0.10 in   Overcast
7:53 AM 68.0 °F 66.0 °F 93% 29.86 in 10.0 mi WSW 4.6 mph - 0.10 in Rain Light Rain
8:40 AM 68.0 °F 66.2 °F 94% 29.88 in 10.0 mi West 6.9 mph - 0.03 in   Overcast
8:46 AM 68.0 °F 64.4 °F 88% 29.88 in 10.0 mi WSW 4.6 mph - 0.03 in   Overcast
8:53 AM 69.1 °F 64.9 °F 87% 29.86 in 10.0 mi SW 3.5 mph - 0.03 in   Overcast
9:49 AM 69.8 °F 66.2 °F 88% 29.90 in 10.0 mi SSW 4.6 mph - N/A   Overcast
9:53 AM 70.0 °F 66.0 °F 87% 29.87 in 10.0 mi South 4.6 mph - N/A   Mostly Cloudy
10:13 AM 69.8 °F 66.2 °F 88% 29.90 in 10.0 mi SW 5.8 mph - N/A   Overcast
10:53 AM 72.0 °F 66.9 °F 84% 29.87 in 10.0 mi WSW 5.8 mph - N/A   Mostly Cloudy
11:15 AM 73.4 °F 66.2 °F 78% 29.90 in 10.0 mi SW 9.2 mph - N/A   Mostly Cloudy
11:24 AM 73.4 °F 66.2 °F 78% 29.90 in 10.0 mi WSW 8.1 mph - N/A   Scattered Clouds
11:53 AM 75.0 °F 64.9 °F 71% 29.87 in 10.0 mi West 8.1 mph - N/A   Mostly Cloudy
12:53 PM 75.9 °F 64.9 °F 69% 29.86 in 10.0 mi West 5.8 mph - N/A   Overcast
1:19 PM 75.2 °F 64.4 °F 69% 29.88 in 10.0 mi West 6.9 mph - N/A   Overcast
1:53 PM 75.9 °F 64.9 °F 69% 29.86 in 10.0 mi SW 4.6 mph - N/A   Overcast
2:19 PM 75.2 °F 64.4 °F 69% 29.88 in 10.0 mi North 8.1 mph - N/A   Overcast
2:53 PM 73.0 °F 62.1 °F 68% 29.86 in 10.0 mi North 9.2 mph - N/A   Overcast
3:00 PM 73.4 °F 62.6 °F 69% 29.88 in 10.0 mi NNE 9.2 mph - N/A   Overcast
3:53 PM 73.0 °F 60.1 °F 64% 29.86 in 10.0 mi North 9.2 mph - N/A   Partly Cloudy
4:53 PM 72.0 °F 59.0 °F 64% 29.86 in 10.0 mi North 11.5 mph - N/A   Mostly Cloudy
5:53 PM 71.1 °F 54.0 °F 55% 29.87 in 10.0 mi North 11.5 mph - N/A   Clear
6:53 PM 68.0 °F 51.1 °F 55% 29.89 in 10.0 mi North 8.1 mph - N/A   Clear
7:53 PM 64.9 °F 51.1 °F 61% 29.92 in 10.0 mi NNE 8.1 mph - N/A   Clear
8:53 PM 64.0 °F 50.0 °F 60% 29.94 in 10.0 mi North 11.5 mph - N/A   Clear
9:53 PM 62.1 °F 50.0 °F 65% 29.99 in 10.0 mi NE 5.8 mph - N/A   Partly Cloudy
10:53 PM 60.1 °F 51.1 °F 72% 29.99 in 10.0 mi North 8.1 mph - N/A   Clear
11:53 PM 60.1 °F 50.0 °F 69% 30.00 in 10.0 mi NE 5.8 mph - N/A   Partly Cloudy